Terug naar catalogus

STARLINK-31114

ActiefCommunicatieVLEO
NORAD 58766·PAYLOAD·🇺🇸 United States

Gelanceerd Jan 14, 2024 vanaf Vandenberg Space Force Base

Loading…

Volgende Passages (komende 24 uur)

TLE

VersSource: CelesTrak SupGP

Epoch: Sep 15, 2026, 01:46 UTC

1 58766C 24011B   26258.07409722 -.00019429  00000+0 -57429-3 0  2588
2 58766  53.1577 210.8714 0001144  76.4667 165.9378 15.34385894    11

Volg STARLINK-31114 in realtime met AllMySat

Download on the App Store